This is the latest recevied weather packets stored in our database for station/object WE1C. If no packets are shown the sender has not sent any weather packets the latest 10 day(s).
| Time | Temp. | Humidity | Pressure | Rain* | Wind** | Luminosity | Snow |
|---|---|---|---|---|---|---|---|
| 1777427552 | 7.78° C | 54% | 1048.7 hPa | 0 mm | - | 0 W/m² | - |
| 1777427248 | 7.78° C | 55% | 1048.8 hPa | 0 mm | - | 0 W/m² | - |
| 1777426946 | 7.78° C | 55% | 1048.8 hPa | 0 mm | - | 0 W/m² | - |
| 1777426642 | 7.78° C | 56% | 1048.8 hPa | 0 mm | - | 0 W/m² | - |
| 1777426339 | 7.78° C | 56% | 1048.8 hPa | 0 mm | - | 0 W/m² | - |
| 1777426034 | 7.78° C | 56% | 1048.9 hPa | 0 mm | - | 0 W/m² | - |
| 1777425729 | 7.78° C | 56% | 1048.8 hPa | 0 mm | - | 0 W/m² | - |
| 1777425424 | 8.33° C | 56% | 1048.8 hPa | 0 mm | - | 0 W/m² | - |
| 1777425121 | 8.33° C | 55% | 1049 hPa | 0 mm | - | 0 W/m² | - |
| 1777424817 | 8.33° C | 53% | 1048.9 hPa | 0 mm | - | 0 W/m² | - |
| 1777424513 | 8.33° C | 50% | 1048.9 hPa | 0 mm | - | 0 W/m² | - |
| 1777424208 | 8.33° C | 49% | 1048.6 hPa | 0 mm | - | 0 W/m² | - |
| 1777423906 | 8.33° C | 46% | 1048.9 hPa | 0 mm | - | 0 W/m² | - |
| 1777423602 | 8.89° C | 44% | 1048.8 hPa | 0 mm | - | 0 W/m² | - |
| 1777423297 | 8.89° C | 43% | 1048.8 hPa | 0 mm | - | 0 W/m² | - |
| 1777422992 | 8.89° C | 41% | 1048.8 hPa | 0 mm | - | 0 W/m² | - |
| 1777422688 | 8.89° C | 37% | 1048.6 hPa | 0 mm | - | 0 W/m² | - |
| 1777422383 | 8.89° C | 36% | 1048.5 hPa | 0 mm | - | 0 W/m² | - |
| 1777422078 | 9.44° C | 35% | 1048.5 hPa | 0 mm | - | 0 W/m² | - |
| 1777421772 | 9.44° C | 37% | 1048.4 hPa | 0 mm | - | 0 W/m² | - |
| 1777421469 | 9.44° C | 37% | 1048.3 hPa | 0 mm | - | 0 W/m² | - |
| 1777421165 | 10° C | 36% | 1048.4 hPa | 0 mm | - | 0 W/m² | - |
| 1777420861 | 10° C | 36% | 1048.1 hPa | 0 mm | - | 0 W/m² | - |
| 1777420557 | 10° C | 36% | 1048.2 hPa | 0 mm | - | 0 W/m² | - |
| 1777420253 | 10.56° C | 35% | 1048.3 hPa | 0 mm | - | 0 W/m² | - |
* Rain latest hour (hover to see other rain measurements)
** Current wind speed in m/s (hover to see current wind gust speed)